| time (UTC) | temp F | wind direction | speed knots | gust knots | rain 1hr in | rain 24hr in | rain mn in | humidity % | barometer mb |
| 20260504010736 | 63 | 180 | 1.7 | 2.6 | 0.00 | 0.00 | 0.00 | 39 | 1004.1 |
| 20260504005715 | 64 | 158 | 0.9 | 0.9 | 0.00 | 0.00 | 0.00 | 41 | 1004.1 |
| 20260504004736 | 64 | 158 | 0.9 | 1.7 | 0.00 | 0.00 | 0.00 | 42 | 1003.9 |
| 20260504003716 | 64 | 0.0 | 1.7 | 0.00 | 0.00 | 0.00 | 44 | 1003.9 | |
| 20260504002715 | 65 | 225 | 0.9 | 1.7 | 0.00 | 0.00 | 0.00 | 45 | 1003.9 |
| 20260504001736 | 66 | 0.0 | 0.0 | 0.00 | 0.00 | 0.00 | 40 | 1003.8 | |
| 20260504000717 | 66 | 180 | 1.7 | 2.6 | 0.00 | 0.00 | 0.00 | 37 | 1003.8 |
| 20260503235739 | 67 | 0.0 | 0.9 | 0.00 | 0.00 | 0.00 | 41 | 1003.9 | |
| 20260503234716 | 67 | 248 | 0.9 | 0.9 | 0.00 | 0.00 | 0.00 | 39 | 1003.9 |
| 20260503233736 | 68 | 135 | 1.7 | 2.6 | 0.00 | 0.00 | 0.00 | 37 | 1004.0 |
| 20260503232716 | 69 | 203 | 0.9 | 0.9 | 0.00 | 0.00 | 0.00 | 33 | 1004.0 |
| 20260503231817 | 70 | 23 | 0.9 | 2.6 | 0.00 | 0.00 | 0.00 | 32 | 1003.9 |
| 20260503230738 | 70 | 270 | 1.7 | 4.3 | 0.00 | 0.00 | 0.00 | 33 | 1004.0 |
| 20260503225716 | 70 | 270 | 0.9 | 2.6 | 0.00 | 0.00 | 0.00 | 32 | 1004.0 |
| 20260503224716 | 70 | 135 | 2.6 | 5.2 | 0.00 | 0.00 | 0.00 | 35 | 1003.9 |
| 20260503223716 | 71 | 113 | 2.6 | 4.3 | 0.00 | 0.00 | 0.00 | 31 | 1003.9 |
| 20260503222718 | 71 | 203 | 0.9 | 2.6 | 0.00 | 0.00 | 0.00 | 31 | 1003.8 |
| 20260503221736 | 70 | 270 | 2.6 | 3.5 | 0.00 | 0.00 | 0.00 | 31 | 1003.7 |
| 20260503220716 | 71 | 135 | 2.6 | 6.1 | 0.00 | 0.00 | 0.00 | 31 | 1003.8 |
| 20260503215716 | 71 | 23 | 1.7 | 2.6 | 0.00 | 0.00 | 0.00 | 37 | 1003.9 |
| 20260503214717 | 71 | 270 | 2.6 | 3.5 | 0.00 | 0.00 | 0.00 | 34 | 1004.0 |
| 20260503213716 | 71 | 270 | 1.7 | 5.2 | 0.00 | 0.00 | 0.00 | 32 | 1004.0 |
| 20260503212738 | 71 | 45 | 2.6 | 5.2 | 0.00 | 0.00 | 0.00 | 32 | 1004.1 |
| 20260503211716 | 71 | 90 | 2.6 | 5.2 | 0.00 | 0.00 | 0.00 | 32 | 1004.2 |
| 20260503210716 | 71 | 315 | 2.6 | 3.5 | 0.00 | 0.00 | 0.00 | 30 | 1004.3 |
| 20260503205716 | 71 | 225 | 2.6 | 4.3 | 0.00 | 0.00 | 0.00 | 30 | 1004.1 |
| 20260503204716 | 72 | 68 | 2.6 | 7.0 | 0.00 | 0.00 | 0.00 | 29 | 1004.3 |
| 20260503203716 | 72 | 90 | 1.7 | 3.5 | 0.00 | 0.00 | 0.00 | 37 | 1004.4 |
| 20260503202716 | 71 | 270 | 6.1 | 9.6 | 0.00 | 0.00 | 0.00 | 35 | 1004.3 |
| 20260503201717 | 71 | 270 | 2.6 | 5.2 | 0.00 | 0.00 | 0.00 | 36 | 1004.3 |
| 20260503200716 | 71 | 23 | 2.6 | 6.1 | 0.00 | 0.00 | 0.00 | 37 | 1004.4 |
| 20260503195716 | 72 | 0 | 2.6 | 4.3 | 0.00 | 0.00 | 0.00 | 38 | 1004.4 |
| 20260503194716 | 71 | 180 | 2.6 | 6.1 | 0.00 | 0.00 | 0.00 | 37 | 1004.4 |
| 20260503193716 | 71 | 180 | 0.9 | 1.7 | 0.00 | 0.00 | 0.00 | 41 | 1004.4 |
| 20260503192716 | 70 | 315 | 2.6 | 4.3 | 0.00 | 0.00 | 0.00 | 37 | 1004.5 |
| 20260503191736 | 72 | 68 | 2.6 | 6.1 | 0.00 | 0.00 | 0.00 | 36 | 1004.6 |
| 20260503190717 | 71 | 180 | 2.6 | 5.2 | 0.00 | 0.00 | 0.00 | 37 | 1004.6 |
| 20260503185716 | 70 | 90 | 2.6 | 3.5 | 0.00 | 0.00 | 0.00 | 38 | 1004.7 |
| 20260503184717 | 70 | 90 | 2.6 | 4.3 | 0.00 | 0.00 | 0.00 | 37 | 1004.8 |
| 20260503183716 | 70 | 45 | 0.9 | 2.6 | 0.00 | 0.00 | 0.00 | 40 | 1004.7 |
| 20260503182716 | 69 | 0 | 1.7 | 5.2 | 0.00 | 0.00 | 0.00 | 43 | 1004.9 |
| 20260503181716 | 69 | 135 | 0.9 | 1.7 | 0.00 | 0.00 | 0.00 | 38 | 1005.0 |
| 20260503180716 | 68 | 113 | 2.6 | 4.3 | 0.00 | 0.00 | 0.00 | 41 | 1005.1 |
| 20260503175716 | 68 | 180 | 1.7 | 5.2 | 0.00 | 0.00 | 0.00 | 42 | 1005.2 |
| 20260503174716 | 68 | 338 | 1.7 | 2.6 | 0.00 | 0.00 | 0.00 | 44 | 1005.1 |
| 20260503173736 | 67 | 293 | 1.7 | 2.6 | 0.00 | 0.00 | 0.00 | 40 | 1005.3 |
| 20260503172716 | 66 | 203 | 2.6 | 3.5 | 0.00 | 0.00 | 0.00 | 41 | 1005.4 |
| 20260503171716 | 66 | 0 | 1.7 | 3.5 | 0.00 | 0.00 | 0.00 | 44 | 1005.4 |
| 20260503170737 | 65 | 45 | 0.9 | 1.7 | 0.00 | 0.00 | 0.00 | 43 | 1005.4 |
| 20260503150717 | 62 | 45 | 2.6 | 5.2 | 0.00 | 0.00 | 0.00 | 44 | 1005.9 |
| 20260503130717 | 56 | 0 | 1.7 | 2.6 | 0.00 | 0.00 | 0.00 | 58 | 1006.8 |
| 20260503110317 | 49 | 0.0 | 0.9 | 0.00 | 0.00 | 0.00 | 80 | 1006.5 | |
| 20260503090338 | 50 | 0.0 | 0.9 | 0.00 | 0.00 | 0.00 | 63 | 1008.7 | |
| 20260503081317 | 51 | 0.0 | 0.9 | 0.00 | 0.00 | 0.00 | 60 | 1009.2 | |
| 20260503080317 | 51 | 0.0 | 0.0 | 0.00 | 0.00 | 0.00 | 58 | 1009.3 | |
| 20260503072418 | 51 | 0.0 | 0.9 | 0.00 | 0.00 | 0.00 | 58 | 1009.5 | |
| 20260503071337 | 51 | 158 | 0.9 | 1.7 | 0.00 | 0.00 | 0.00 | 59 | 1009.8 |
| 20260503070318 | 51 | 0.0 | 0.9 | 0.00 | 0.00 | 0.00 | 58 | 1009.9 | |
| 20260503060337 | 51 | 0.0 | 0.9 | 0.00 | 0.00 | 0.00 | 60 | 1010.3 | |
| 20260503054317 | 51 | 0.0 | 0.9 | 0.00 | 0.00 | 0.00 | 61 | 1010.5 | |
| 20260503053317 | 51 | 0.0 | 0.0 | 0.00 | 0.00 | 0.00 | 59 | 1010.6 | |
| 20260503052318 | 51 | 0.0 | 0.9 | 0.00 | 0.00 | 0.00 | 59 | 1010.7 | |
| 20260503051338 | 51 | 0.0 | 0.0 | 0.00 | 0.00 | 0.00 | 59 | 1010.7 | |
| 20260503050316 | 51 | 0.0 | 0.0 | 0.00 | 0.00 | 0.00 | 58 | 1010.8 | |
| 20260503045317 | 51 | 0.0 | 0.9 | 0.00 | 0.00 | 0.00 | 59 | 1010.7 | |
| 20260503044317 | 51 | 0.0 | 0.0 | 0.00 | 0.00 | 0.00 | 60 | 1010.8 | |
| 20260503043317 | 52 | 0.0 | 0.0 | 0.00 | 0.00 | 0.00 | 58 | 1010.9 | |
| 20260503042318 | 53 | 0.0 | 0.0 | 0.00 | 0.00 | 0.00 | 56 | 1011.0 | |
| 20260503041316 | 53 | 0.0 | 0.9 | 0.00 | 0.00 | 0.00 | 55 | 1011.1 | |
| 20260503040337 | 53 | 203 | 0.9 | 0.9 | 0.00 | 0.00 | 0.00 | 54 | 1011.1 |
| 20260503035317 | 53 | 0.0 | 0.9 | 0.00 | 0.00 | 0.00 | 52 | 1011.2 | |
| 20260503034317 | 53 | 203 | 0.9 | 1.7 | 0.00 | 0.00 | 0.00 | 52 | 1011.3 |
| 20260503033338 | 54 | 0.0 | 0.9 | 0.00 | 0.00 | 0.00 | 54 | 1011.4 | |
| 20260503032337 | 54 | 203 | 0.9 | 0.9 | 0.00 | 0.00 | 0.00 | 53 | 1011.5 |
| 20260503031317 | 54 | 203 | 0.9 | 1.7 | 0.00 | 0.00 | 0.00 | 51 | 1011.6 |
| 20260503030336 | 54 | 0.0 | 0.9 | 0.00 | 0.00 | 0.00 | 52 | 1011.6 | |
| 20260503025316 | 54 | 0.0 | 0.0 | 0.00 | 0.00 | 0.00 | 52 | 1011.9 | |
| 20260503024316 | 54 | 203 | 0.9 | 1.7 | 0.00 | 0.00 | 0.00 | 52 | 1011.9 |
| 20260503023316 | 55 | 203 | 0.9 | 0.9 | 0.00 | 0.00 | 0.00 | 51 | 1012.0 |
| 20260503022317 | 55 | 203 | 0.9 | 0.9 | 0.00 | 0.00 | 0.00 | 50 | 1011.9 |
| 20260503021318 | 55 | 203 | 0.9 | 0.9 | 0.00 | 0.00 | 0.00 | 50 | 1012.0 |
| 20260503020316 | 55 | 0.0 | 0.9 | 0.00 | 0.00 | 0.00 | 49 | 1012.0 | |
| 20260503015316 | 55 | 0.0 | 0.9 | 0.00 | 0.00 | 0.00 | 51 | 1011.9 | |
| 20260503014316 | 55 | 203 | 0.9 | 0.9 | 0.00 | 0.00 | 0.00 | 50 | 1011.9 |
| 20260503013317 | 56 | 203 | 0.9 | 1.7 | 0.00 | 0.00 | 0.00 | 50 | 1011.9 |
| 20260503012317 | 55 | 180 | 0.9 | 1.7 | 0.00 | 0.00 | 0.00 | 48 | 1011.9 |
| 20260503011316 | 56 | 180 | 0.9 | 1.7 | 0.00 | 0.00 | 0.00 | 48 | 1012.0 |